Location: Vancouver
(49.2500°N, 123.1330°W)
Time: 07:55:28
(UTC-07:00)

ISS - All Passes

Search period start: 23 May 2015 00:00
Search period end: 02 June 2015 00:00
Orbit: 399 x 404 km, 51.6° (Epoch: 23 May)

Date Brightness Start Highest point End Pass type
(mag) Time Alt. Az. Time Alt. Az. Time Alt. Az.
23 May - 01:16:25 10° SSE 01:18:01 13° SE 01:19:43 10° ESE visible
23 May - 02:50:44 10° SW 02:53:57 62° SSE 02:57:12 10° ENE visible
23 May - 04:27:13 10° W 04:30:26 56° N 04:33:41 10° ENE visible
23 May - 06:03:48 10° WNW 06:07:05 71° NNE 06:10:21 10° E daylight
23 May - 07:40:22 10° W 07:43:22 33° SSW 07:46:21 10° SSE daylight
24 May - 01:57:46 10° SW 02:00:50 39° SSE 02:03:54 10° ENE visible
24 May - 03:33:55 10° W 03:37:10 65° NNW 03:40:26 10° ENE visible
24 May - 05:10:35 10° WNW 05:13:49 58° N 05:17:04 10° E daylight
24 May - 06:47:03 10° WNW 06:50:16 53° SSW 06:53:28 10° SE daylight
24 May - 08:25:06 10° WSW 08:26:08 11° SW 08:27:03 10° SSW daylight
25 May - 01:05:03 10° SSW 01:07:45 24° SE 01:10:29 10° E visible
25 May - 02:40:39 10° WSW 02:43:55 84° NNW 02:47:12 10° ENE visible
25 May - 04:17:18 10° WNW 04:20:32 53° N 04:23:45 10° E visible
25 May - 05:53:48 10° WNW 05:57:04 80° SSW 06:00:21 10° ESE daylight
25 May - 07:30:46 10° W 07:33:08 18° SW 07:35:28 10° S daylight
26 May - 00:12:47 10° S 00:14:42 15° SE 00:16:42 10° E visible
26 May - 01:47:27 10° WSW 01:50:41 69° SSE 01:53:56 10° ENE visible
26 May - 03:23:58 10° W 03:27:11 54° N 03:30:25 10° ENE visible
26 May - 05:00:33 10° WNW 05:03:49 75° NNE 05:07:06 10° ESE daylight
26 May - 06:37:09 10° W 06:40:03 29° SW 06:42:57 10° SSE daylight
27 May - 00:54:22 10° SW 00:57:29 44° SSE 01:00:37 10° ENE visible
27 May - 02:30:37 10° W 02:33:51 62° N 02:37:07 10° ENE visible
27 May - 04:07:16 10° WNW 04:10:31 60° N 04:13:45 10° E visible
27 May - 05:43:44 10° WNW 05:46:54 47° SSW 05:50:04 10° SE daylight
28 May - 00:01:31 10° SSW 00:04:19 27° SE 00:07:10 10° E visible
28 May - 01:37:16 10° WSW 01:40:32 78° NNW 01:43:48 10° ENE visible
28 May - 03:13:56 10° WNW 03:17:08 54° N 03:20:22 10° E visible
28 May - 04:50:24 10° WNW 04:53:40 73° SSW 04:56:56 10° ESE daylight
28 May - 06:27:31 10° W 06:29:41 16° SW 06:31:47 10° S daylight
28 May - 23:09:02 10° S 23:11:12 17° SE 23:13:26 10° E visible
29 May - 00:43:58 10° WSW 00:47:13 75° SSE 00:50:29 10° ENE visible
29 May - 02:20:32 10° W 02:23:45 54° N 02:26:58 10° ENE visible
29 May - 03:57:05 10° WNW 04:00:22 80° NNE 04:03:38 10° ESE visible
29 May - 05:33:45 10° W 05:36:33 26° SW 05:39:21 10° SSE daylight
29 May - 23:50:48 10° SW 23:53:56 49° SSE 23:57:07 10° ENE visible
30 May - 01:27:07 10° W 01:30:21 60° N 01:33:36 10° ENE visible
30 May - 03:03:45 10° WNW 03:06:59 63° N 03:10:15 10° E visible
30 May - 04:40:14 10° WNW 04:43:21 42° SSW 04:46:27 10° SE daylight
30 May - 22:57:49 10° SSW 23:00:42 30° SE 23:03:38 10° E visible
31 May - 00:33:42 10° W 00:36:57 74° NNW 00:40:13 10° ENE visible
31 May - 02:10:21 10° WNW 02:13:34 55° N 02:16:48 10° E visible
31 May - 03:46:49 10° WNW 03:50:05 66° SSW 03:53:19 10° ESE visible
31 May - 05:24:06 10° WSW 05:26:02 15° SW 05:27:52 10° S daylight
31 May - 22:05:09 10° S 22:07:30 19° SE 22:09:55 10° E visible
31 May - 23:40:19 10° WSW 23:43:34 82° SSE 23:46:50 10° ENE visible
01 Jun - 01:16:55 10° W 01:20:08 53° N 01:23:20 10° ENE visible
01 Jun - 02:53:26 10° WNW 02:56:43 86° NNE 02:59:59 10° ESE visible
01 Jun - 04:30:09 10° W 04:32:52 24° SW 04:35:31 10° SSE visible
01 Jun - 21:13:18 10° SSE 21:14:21 11° SE 21:15:30 10° ESE daylight
01 Jun - 22:47:03 10° SW 22:50:14 54° SSE 22:53:25 10° ENE visible
